Latrobe, PA

2:18 AM EST on December 10, 2019 (GMT -0500)
Arnold Palmer Regional

Weather History for KLBE - May, 2019

Change the Weather History Date:

Friday, May 10, 2019

  Actual Average Record
Temperature  
Mean Temperature 62 °F -  
Max Temperature 71 °F 70 °F 86 °F (2015)
Min Temperature 53 °F 47 °F 37 °F (1999)
Degree Days  
Heating Degree Days 3    
Growing Degree Days 12 (Base 50)    
Moisture  
Dew Point 61 °F    
Average Humidity 90    
Maximum Humidity 100    
Minimum Humidity 68    
Precipitation  
Precipitation 0.00 in - - ()
Sea Level Pressure  
Sea Level Pressure 29.98 in    
Wind  
Wind Speed 6 mph (WSW)    
Max Wind Speed 17 mph    
Max Gust Speed 25 mph    
Visibility 9 miles    
Events Rain    
Averages and records for this station are not official NWS values.
T = Trace of Precipitation, MM = Missing Value Source: NWS Daily Summary

Daily Weather History Graph

Daily Weather History Graph

Search for Another Location

Airport or City:

Astronomy

May. 10, 2019 Rise Set
Actual Time 6:06 AM EDT 8:21 PM EDT
Civil Twilight 5:36 AM EDT 8:52 PM EDT
Nautical Twilight 4:59 AM EDT 9:29 PM EDT
Astronomical Twilight 4:18 AM EDT 10:10 PM EDT
Moon 11:04 AM EDT 1:13 AM EDT
Length of Visible Light 15h 15m
Length of Day
14h 14m
Waxing Crescent, 35% of the Moon is Illuminated
May 10
Waxing Crescent
May 11
First Quarter
May 18
Full
May 26
Last Quarter
Jun 3
New

Hourly Weather History & Observations

Time (EDT) Temp. Dew Point Humidity Pressure Visibility Wind Dir Wind Speed Gust Speed Precip Events Conditions
12:15 AM 64.4 °F 64.4 °F 100% 29.97 in 10.0 mi WSW 5.8 mph - N/A Rain Light Rain
12:35 AM 64.4 °F 64.4 °F 100% 29.97 in 2.0 mi West 6.9 mph 15.0 mph N/A Rain Heavy Rain
12:55 AM 64.4 °F 64.4 °F 100% 29.98 in 10.0 mi Calm Calm - N/A   Mostly Cloudy
1:15 AM 64.4 °F 64.4 °F 100% 29.97 in 10.0 mi Calm Calm - N/A Rain Light Rain
1:35 AM 64.4 °F 64.4 °F 100% 29.96 in 10.0 mi Calm Calm - N/A   Mostly Cloudy
1:55 AM 64.4 °F 64.4 °F 100% 29.96 in 10.0 mi Calm Calm - N/A   Mostly Cloudy
2:15 AM 64.4 °F 64.4 °F 100% 29.95 in 10.0 mi Calm Calm - N/A   Scattered Clouds
2:35 AM 64.4 °F 64.4 °F 100% 29.95 in 10.0 mi Calm Calm - N/A   Mostly Cloudy
2:55 AM 64.4 °F 64.4 °F 100% 29.93 in 10.0 mi Calm Calm - N/A   Mostly Cloudy
3:15 AM 62.6 °F 62.6 °F 100% 29.93 in 10.0 mi Calm Calm - N/A   Scattered Clouds
3:35 AM 62.6 °F 62.6 °F 100% 29.92 in 10.0 mi South 5.8 mph - N/A   Mostly Cloudy
3:55 AM 64.4 °F 64.4 °F 100% 29.92 in 10.0 mi South 4.6 mph - N/A   Mostly Cloudy
4:15 AM 64.4 °F 62.6 °F 94% 29.91 in 10.0 mi SSE 4.6 mph - N/A   Overcast
4:35 AM 66.2 °F 62.6 °F 88% 29.91 in 10.0 mi South 4.6 mph - N/A   Mostly Cloudy
4:55 AM 68.0 °F 60.8 °F 78% 29.90 in 10.0 mi South 8.1 mph - N/A   Overcast
5:15 AM 68.0 °F 59.0 °F 73% 29.90 in 10.0 mi South 13.8 mph - N/A   Overcast
5:35 AM 68.0 °F 59.0 °F 73% 29.90 in 10.0 mi South 11.5 mph - N/A   Mostly Cloudy
5:55 AM 68.0 °F 60.8 °F 78% 29.90 in 10.0 mi South 6.9 mph - N/A   Overcast
6:47 AM 68.0 °F 62.6 °F 83% 29.92 in 10.0 mi SSW 13.8 mph 23.0 mph N/A Rain Light Rain
7:47 AM 64.4 °F 64.4 °F 100% 29.96 in 10.0 mi SW 11.5 mph - N/A   Overcast
8:47 AM 64.4 °F 64.4 °F 100% 29.97 in 10.0 mi SSW 11.5 mph - N/A   Overcast
9:47 AM 66.2 °F 66.2 °F 100% 29.99 in 10.0 mi SW 11.5 mph - N/A   Overcast
10:47 AM 69.8 °F 66.2 °F 88% 29.98 in 10.0 mi WSW 9.2 mph - N/A   Overcast
11:47 AM 66.2 °F 66.2 °F 100% 30.00 in 6.0 mi SSW 11.5 mph - N/A Rain Light Rain
12:51 PM 69.8 °F 66.2 °F 88% 29.99 in 10.0 mi SW 11.5 mph 23.0 mph N/A   Mostly Cloudy
2:51 PM 69.8 °F 66.2 °F 88% 29.98 in 10.0 mi WSW 12.7 mph 25.3 mph N/A   Mostly Cloudy
3:51 PM 69.8 °F 64.4 °F 83% 29.98 in 10.0 mi SSW 13.8 mph - N/A   Mostly Cloudy
4:50 PM 71.6 °F 60.8 °F 69% 29.98 in 8.0 mi West 17.3 mph - N/A   Mostly Cloudy
5:50 PM 69.8 °F 59.0 °F 68% 29.99 in 8.0 mi WSW 16.1 mph - N/A   Mostly Cloudy
6:50 PM 64.4 °F 59.0 °F 83% 30.02 in 8.0 mi NW 17.3 mph - N/A   Mostly Cloudy
7:50 PM 60.8 °F 57.2 °F 88% 30.05 in 8.0 mi NW 6.9 mph - N/A   Mostly Cloudy
8:50 PM 59.0 °F 55.4 °F 88% 30.07 in 8.0 mi NW 5.8 mph - N/A   Overcast
9:50 PM 59.0 °F 55.4 °F 88% 30.08 in 8.0 mi NW 5.8 mph - N/A   Overcast
10:15 PM 57.2 °F 53.6 °F 88% 30.08 in 10.0 mi NW 10.4 mph - N/A   Overcast
10:35 PM 55.4 °F 51.8 °F 88% 30.09 in 10.0 mi NW 6.9 mph 12.7 mph N/A   Overcast
10:55 PM 55.4 °F 50.0 °F 82% 30.09 in 10.0 mi North 6.9 mph - N/A   Overcast
11:15 PM 55.4 °F 50.0 °F 82% 30.09 in 10.0 mi NW 4.6 mph - N/A   Overcast
11:35 PM 53.6 °F 50.0 °F 88% 30.10 in 10.0 mi North 5.8 mph - N/A   Overcast
11:55 PM 53.6 °F 48.2 °F 82% 30.10 in 10.0 mi NW 6.9 mph - N/A   Overcast